TimeAKDT,TemperatureF,Dew PointF,Humidity,Sea Level PressureIn,VisibilityMPH,Wind Direction,Wind SpeedMPH,Gust SpeedMPH,PrecipitationIn,Events,Conditions,WindDirDegrees,DateUTC
12:16 AM,30.2,28.4,93,29.97,0.2,East,8.1,-,N/A,Fog,Light Freezing Fog,100,2013-05-26 08:16:00
12:53 AM,30.9,28.9,92,29.98,0.5,ESE,8.1,-,N/A,Fog,Light Freezing Fog,110,2013-05-26 08:53:00
1:33 AM,30.2,28.4,93,29.97,0.2,East,6.9,-,N/A,Fog,Light Freezing Fog,100,2013-05-26 09:33:00
1:53 AM,30.0,28.0,92,29.97,0.2,East,8.1,-,N/A,Fog,Light Freezing Fog,100,2013-05-26 09:53:00
2:34 AM,30.2,28.4,93,29.96,0.8,East,6.9,-,N/A,,Mostly Cloudy,100,2013-05-26 10:34:00
2:40 AM,30.2,28.4,93,29.96,1.0,ESE,8.1,-,N/A,,Mostly Cloudy,110,2013-05-26 10:40:00
2:53 AM,30.0,28.0,92,29.96,2.0,East,8.1,-,N/A,,Mostly Cloudy,100,2013-05-26 10:53:00
3:16 AM,30.2,28.4,93,29.95,10.0,ESE,5.8,-,N/A,,Mostly Cloudy,110,2013-05-26 11:16:00
3:53 AM,30.0,28.0,92,29.95,10.0,ESE,6.9,-,N/A,,Mostly Cloudy,120,2013-05-26 11:53:00
4:53 AM,30.0,27.0,88,29.94,10.0,ESE,6.9,-,N/A,,Mostly Cloudy,110,2013-05-26 12:53:00
5:53 AM,30.0,28.0,92,29.94,10.0,ESE,5.8,-,N/A,,Overcast,120,2013-05-26 13:53:00
6:53 AM,30.9,28.9,92,29.94,10.0,Calm,Calm,-,N/A,,Overcast,0,2013-05-26 14:53:00
7:53 AM,32.0,28.0,85,29.93,10.0,North,3.5,-,N/A,,Overcast,10,2013-05-26 15:53:00
8:53 AM,32.0,28.9,88,29.92,10.0,ENE,5.8,-,N/A,,Overcast,60,2013-05-26 16:53:00
9:53 AM,33.1,28.9,85,29.91,10.0,East,6.9,-,N/A,,Mostly Cloudy,80,2013-05-26 17:53:00
10:53 AM,33.1,28.9,85,29.91,10.0,East,4.6,-,N/A,,Overcast,100,2013-05-26 18:53:00
11:53 AM,33.1,28.9,85,29.91,7.0,East,6.9,-,0.00,Rain,Light Rain,80,2013-05-26 19:53:00
12:53 PM,34.0,30.9,89,29.88,7.0,ENE,10.4,-,0.02,Rain,Light Rain,70,2013-05-26 20:53:00
1:53 PM,35.1,32.0,89,29.90,10.0,Calm,Calm,-,0.00,Rain,Light Rain,0,2013-05-26 21:53:00
2:53 PM,34.0,30.9,89,29.92,8.0,WNW,8.1,-,0.02,Rain,Light Rain,300,2013-05-26 22:53:00
3:53 PM,34.0,30.9,89,29.92,7.0,NW,6.9,-,0.02,Rain,Light Rain,320,2013-05-26 23:53:00
4:53 PM,34.0,30.9,89,29.93,5.0,West,5.8,-,0.04,Rain,Light Rain,280,2013-05-27 00:53:00
5:06 PM,33.8,32.0,93,29.92,7.0,West,9.2,-,0.01,Rain,Light Rain,270,2013-05-27 01:06:00
5:53 PM,34.0,32.0,92,29.94,10.0,WNW,8.1,-,0.01,,Overcast,290,2013-05-27 01:53:00
5:55 PM,33.8,32.0,93,29.94,10.0,West,8.1,-,N/A,,Overcast,280,2013-05-27 01:55:00
6:53 PM,34.0,30.9,89,29.95,7.0,WNW,10.4,-,N/A,,Overcast,290,2013-05-27 02:53:00
7:53 PM,34.0,30.9,89,29.96,10.0,WNW,11.5,-,N/A,,Overcast,290,2013-05-27 03:53:00
8:15 PM,33.8,30.2,87,29.97,1.8,WNW,11.5,-,N/A,,Overcast,300,2013-05-27 04:15:00
8:22 PM,33.8,30.2,87,29.97,2.5,WNW,11.5,-,N/A,,Overcast,300,2013-05-27 04:22:00
8:29 PM,33.8,30.2,87,29.97,6.0,NW,12.7,-,N/A,,Overcast,310,2013-05-27 04:29:00
8:53 PM,34.0,30.9,89,29.98,10.0,NW,13.8,-,N/A,,Overcast,320,2013-05-27 04:53:00
9:50 PM,35.6,30.2,81,30.00,10.0,WNW,10.4,-,N/A,,Mostly Cloudy,300,2013-05-27 05:50:00
9:53 PM,35.1,30.9,85,30.01,10.0,WNW,10.4,-,N/A,,Mostly Cloudy,300,2013-05-27 05:53:00
10:03 PM,35.6,30.2,81,30.00,10.0,WNW,10.4,-,N/A,,Partly Cloudy,300,2013-05-27 06:03:00
10:32 PM,33.8,30.2,87,30.01,10.0,NW,10.4,-,N/A,,Mostly Cloudy,310,2013-05-27 06:32:00
10:53 PM,33.1,28.9,85,30.03,10.0,NW,13.8,-,N/A,,Overcast,310,2013-05-27 06:53:00
11:15 PM,32.0,28.4,87,30.03,1.8,NW,11.5,-,N/A,,Overcast,310,2013-05-27 07:15:00
11:22 PM,32.0,28.4,87,30.03,0.5,NW,11.5,-,N/A,Fog,Fog,310,2013-05-27 07:22:00
11:53 PM,32.0,28.9,88,30.04,0.5,NW,11.5,-,N/A,Fog,Fog,310,2013-05-27 07:53:00